"Sample Date","Sample Time","Sensor Name","Sample Value","Units","Flow Rate","Sample Interval","Sample Volume","Laser Status","Number Channels","Micron Size 0","Counts/Channel 0","Micron Size 1","Counts/Channel 1","Micron Size 2","Counts/Channel 2","Micron Size 3","Counts/Channel 3","Micron Size 4","Counts/Channel 4","Micron Size 5","Counts/Channel 5","Micron Size 6","Counts/Channel 6","Micron Size 7","Counts/Channel 7","Micron Size 8","Counts/Channel 8","Micron Size 9","Counts/Channel 9","Micron Size 10","Counts/Channel 10","Micron Size 11","Counts/Channel 11","Micron Size 12","Counts/Channel 12","Micron Size 13","Counts/Channel 13","Micron Size 14","Counts/Channel 14","Micron Size 15","Counts/Channel 15","Micron Size 16","Counts/Channel 16","Micron Size 17","Counts/Channel 17","Micron Size 18","Counts/Channel 18","Micron Size 19","Counts/Channel 19","Micron Size 20","Counts/Channel 20","Micron Size 21","Counts/Channel 21","Micron Size 22","Counts/Channel 22","Micron Size 23","Counts/Channel 23","Micron Size 24","Counts/Channel 24","Micron Size 25","Counts/Channel 25","Micron Size 26","Counts/Channel 26","Micron Size 27","Counts/Channel 27","Micron Size 28","Counts/Channel 28","Micron Size 29","Counts/Channel 29","Micron Size 30","Counts/Channel 30","Micron Size 31","Counts/Channel 31"
"07/10/06","04:00:02","AMMA06",35159.000,"cc",28343.943,6.00,2834.395,1,6,0.100,18206.000,0.200,14423.000,0.300,2310.000,0.500,149.000,1.000,71.000,5.000,0
"07/10/06","04:00:08","AMMA06",36003.000,"cc",28281.856,6.00,2828.186,1,6,0.100,18534.000,0.200,14706.000,0.300,2435.000,0.500,229.000,1.000,99.000,5.000,0
"07/10/06","04:00:14","AMMA06",35773.000,"cc",28284.072,6.00,2828.408,1,6,0.100,18413.000,0.200,14656.000,0.300,2417.000,0.500,184.000,1.000,102.000,5.000,1.000
"07/10/06","04:00:20","AMMA06",35730.000,"cc",28301.647,6.00,2830.165,1,6,0.100,18558.000,0.200,14679.000,0.300,2277.000,0.500,152.000,1.000,64.000,5.000,0
"07/10/06","04:00:26","AMMA06",35554.000,"cc",28370.707,6.00,2837.071,1,6,0.100,18382.000,0.200,14575.000,0.300,2360.000,0.500,167.000,1.000,70.000,5.000,0
"07/10/06","04:00:32","AMMA06",35546.000,"cc",28350.668,6.00,2835.067,1,6,0.100,18393.000,0.200,14562.000,0.300,2391.000,0.500,139.000,1.000,61.000,5.000,0
"07/10/06","04:00:38","AMMA06",35434.000,"cc",28284.156,6.00,2828.416,1,6,0.100,18360.000,0.200,14536.000,0.300,2324.000,0.500,147.000,1.000,67.000,5.000,0
"07/10/06","04:00:44","AMMA06",35751.000,"cc",28263.838,6.00,2826.384,1,6,0.100,18672.000,0.200,14601.000,0.300,2264.000,0.500,146.000,1.000,68.000,5.000,0
"07/10/06","04:00:50","AMMA06",35381.000,"cc",28317.057,6.00,2831.706,1,6,0.100,18291.000,0.200,14564.000,0.300,2326.000,0.500,142.000,1.000,58.000,5.000,0
"07/10/06","04:00:56","AMMA06",35122.000,"cc",28303.453,6.00,2830.346,1,6,0.100,18334.000,0.200,14303.000,0.300,2278.000,0.500,147.000,1.000,60.000,5.000,0
"07/10/06","04:01:02","AMMA06",35519.000,"cc",28301.000,6.00,2830.100,1,6,0.100,18459.000,0.200,14534.000,0.300,2330.000,0.500,128.000,1.000,68.000,5.000,0
"07/10/06","04:01:08","AMMA06",35275.000,"cc",28328.852,6.00,2832.885,1,6,0.100,18351.000,0.200,14431.000,0.300,2305.000,0.500,131.000,1.000,57.000,5.000,0
"07/10/06","04:01:14","AMMA06",35598.000,"cc",28356.908,6.00,2835.691,1,6,0.100,18585.000,0.200,14463.000,0.300,2347.000,0.500,131.000,1.000,72.000,5.000,0
"07/10/06","04:01:20","AMMA06",35463.000,"cc",28339.688,6.00,2833.969,1,6,0.100,18384.000,0.200,14588.000,0.300,2288.000,0.500,158.000,1.000,45.000,5.000,0
"07/10/06","04:01:26","AMMA06",35533.000,"cc",28325.082,6.00,2832.508,1,6,0.100,18410.000,0.200,14562.000,0.300,2356.000,0.500,142.000,1.000,63.000,5.000,0
"07/10/06","04:01:32","AMMA06",35086.000,"cc",28318.842,6.00,2831.884,1,6,0.100,17997.000,0.200,14541.000,0.300,2365.000,0.500,127.000,1.000,56.000,5.000,0
"07/10/06","04:01:38","AMMA06",35323.000,"cc",28316.084,6.00,2831.609,1,6,0.100,18444.000,0.200,14399.000,0.300,2321.000,0.500,103.000,1.000,56.000,5.000,0
"07/10/06","04:01:44","AMMA06",35125.000,"cc",28327.582,6.00,2832.758,1,6,0.100,18106.000,0.200,14475.000,0.300,2345.000,0.500,138.000,1.000,61.000,5.000,0
"07/10/06","04:01:50","AMMA06",35693.000,"cc",28302.285,6.00,2830.229,1,6,0.100,18603.000,0.200,14420.000,0.300,2367.000,0.500,192.000,1.000,111.000,5.000,0
"07/10/06","04:01:56","AMMA06",35400.000,"cc",28288.611,6.00,2828.861,1,6,0.100,18383.000,0.200,14524.000,0.300,2311.000,0.500,133.000,1.000,49.000,5.000,0
"07/10/06","04:02:02","AMMA06",35903.000,"cc",28351.940,6.00,2835.194,1,6,0.100,18422.000,0.200,14720.000,0.300,2466.000,0.500,211.000,1.000,84.000,5.000,0
"07/10/06","04:02:08","AMMA06",35253.000,"cc",28347.094,6.00,2834.710,1,6,0.100,18040.000,0.200,14643.000,0.300,2338.000,0.500,156.000,1.000,76.000,5.000,0
"07/10/06","04:02:14","AMMA06",35070.000,"cc",28278.346,6.00,2827.835,1,6,0.100,18067.000,0.200,14482.000,0.300,2306.000,0.500,148.000,1.000,67.000,5.000,0
"07/10/06","04:02:20","AMMA06",35491.000,"cc",28333.004,6.00,2833.301,1,6,0.100,18224.000,0.200,14710.000,0.300,2323.000,0.500,161.000,1.000,73.000,5.000,0
"07/10/06","04:02:26","AMMA06",35335.000,"cc",28302.973,6.00,2830.297,1,6,0.100,18231.000,0.200,14625.000,0.300,2293.000,0.500,124.000,1.000,62.000,5.000,0
"07/10/06","04:02:32","AMMA06",35435.000,"cc",28300.684,6.00,2830.069,1,6,0.100,18269.000,0.200,14499.000,0.300,2421.000,0.500,166.000,1.000,80.000,5.000,0
"07/10/06","04:02:38","AMMA06",34966.000,"cc",28361.178,6.00,2836.118,1,6,0.100,17899.000,0.200,14535.000,0.300,2339.000,0.500,135.000,1.000,58.000,5.000,0
"07/10/06","04:02:44","AMMA06",35253.000,"cc",28346.182,6.00,2834.618,1,6,0.100,17980.000,0.200,14603.000,0.300,2478.000,0.500,133.000,1.000,59.000,5.000,0
"07/10/06","04:02:50","AMMA06",35195.000,"cc",28274.775,6.00,2827.478,1,6,0.100,18013.000,0.200,14497.000,0.300,2460.000,0.500,166.000,1.000,59.000,5.000,0
"07/10/06","04:02:56","AMMA06",35309.000,"cc",28319.545,6.00,2831.955,1,6,0.100,18015.000,0.200,14607.000,0.300,2464.000,0.500,148.000,1.000,75.000,5.000,0
"07/10/06","04:03:02","AMMA06",35325.000,"cc",28351.914,6.00,2835.192,1,6,0.100,17902.000,0.200,14711.000,0.300,2510.000,0.500,145.000,1.000,57.000,5.000,0
"07/10/06","04:03:08","AMMA06",35458.000,"cc",28356.840,6.00,2835.684,1,6,0.100,17885.000,0.200,14855.000,0.300,2503.000,0.500,143.000,1.000,72.000,5.000,0
"07/10/06","04:03:14","AMMA06",34969.000,"cc",28272.525,6.00,2827.253,1,6,0.100,17743.000,0.200,14568.000,0.300,2448.000,0.500,133.000,1.000,77.000,5.000,0
"07/10/06","04:03:20","AMMA06",35389.000,"cc",28296.494,6.00,2829.650,1,6,0.100,18000.000,0.200,14657.000,0.300,2538.000,0.500,142.000,1.000,52.000,5.000,0
"07/10/06","04:03:26","AMMA06",35576.000,"cc",28345.535,6.00,2834.554,1,6,0.100,18138.000,0.200,14705.000,0.300,2524.000,0.500,135.000,1.000,74.000,5.000,0
"07/10/06","04:03:32","AMMA06",35661.000,"cc",28370.299,6.00,2837.030,1,6,0.100,18008.000,0.200,14882.000,0.300,2555.000,0.500,154.000,1.000,61.000,5.000,1.000
"07/10/06","04:03:38","AMMA06",35552.000,"cc",28293.248,6.00,2829.325,1,6,0.100,18192.000,0.200,14723.000,0.300,2420.000,0.500,141.000,1.000,76.000,5.000,0
"07/10/06","04:03:44","AMMA06",35392.000,"cc",28297.051,6.00,2829.705,1,6,0.100,18062.000,0.200,14645.000,0.300,2484.000,0.500,145.000,1.000,56.000,5.000,0
"07/10/06","04:03:50","AMMA06",35234.000,"cc",28316.846,6.00,2831.685,1,6,0.100,17911.000,0.200,14687.000,0.300,2434.000,0.500,148.000,1.000,54.000,5.000,0
"07/10/06","04:03:56","AMMA06",35609.000,"cc",28296.543,6.00,2829.655,1,6,0.100,18265.000,0.200,14776.000,0.300,2324.000,0.500,159.000,1.000,85.000,5.000,0
"07/10/06","04:04:02","AMMA06",35464.000,"cc",28338.398,6.00,2833.840,1,6,0.100,18032.000,0.200,14705.000,0.300,2471.000,0.500,182.000,1.000,74.000,5.000,0
"07/10/06","04:04:08","AMMA06",35495.000,"cc",28329.315,6.00,2832.932,1,6,0.100,18022.000,0.200,14808.000,0.300,2462.000,0.500,135.000,1.000,68.000,5.000,0
"07/10/06","04:04:14","AMMA06",35612.000,"cc",28301.092,6.00,2830.109,1,6,0.100,18404.000,0.200,14617.000,0.300,2394.000,0.500,142.000,1.000,55.000,5.000,0
"07/10/06","04:04:20","AMMA06",35462.000,"cc",28334.897,6.00,2833.490,1,6,0.100,18102.000,0.200,14717.000,0.300,2422.000,0.500,150.000,1.000,71.000,5.000,0
"07/10/06","04:04:26","AMMA06",35592.000,"cc",28310.859,6.00,2831.086,1,6,0.100,18096.000,0.200,14793.000,0.300,2505.000,0.500,141.000,1.000,57.000,5.000,0
"07/10/06","04:04:32","AMMA06",35409.000,"cc",28293.057,6.00,2829.306,1,6,0.100,18140.000,0.200,14635.000,0.300,2437.000,0.500,134.000,1.000,63.000,5.000,0
"07/10/06","04:04:38","AMMA06",35559.000,"cc",28290.098,6.00,2829.010,1,6,0.100,18122.000,0.200,14798.000,0.300,2429.000,0.500,142.000,1.000,68.000,5.000,0
"07/10/06","04:04:44","AMMA06",35514.000,"cc",28318.777,6.00,2831.878,1,6,0.100,18462.000,0.200,14479.000,0.300,2373.000,0.500,130.000,1.000,70.000,5.000,0
"07/10/06","04:04:50","AMMA06",35300.000,"cc",28291.902,6.00,2829.190,1,6,0.100,18136.000,0.200,14599.000,0.300,2375.000,0.500,126.000,1.000,64.000,5.000,0
"07/10/06","04:04:56","AMMA06",35265.000,"cc",28381.606,6.00,2838.161,1,6,0.100,18066.000,0.200,14655.000,0.300,2359.000,0.500,137.000,1.000,48.000,5.000,0
"07/10/06","04:05:02","AMMA06",35536.000,"cc",28319.707,6.00,2831.971,1,6,0.100,18265.000,0.200,14731.000,0.300,2347.000,0.500,128.000,1.000,65.000,5.000,0
"07/10/06","04:05:08","AMMA06",35409.000,"cc",28275.717,6.00,2827.572,1,6,0.100,18419.000,0.200,14456.000,0.300,2326.000,0.500,136.000,1.000,72.000,5.000,0
"07/10/06","04:05:14","AMMA06",35064.000,"cc",28389.031,6.00,2838.903,1,6,0.100,18060.000,0.200,14592.000,0.300,2224.000,0.500,134.000,1.000,54.000,5.000,0
"07/10/06","04:05:20","AMMA06",35474.000,"cc",28339.619,6.00,2833.962,1,6,0.100,18313.000,0.200,14641.000,0.300,2313.000,0.500,145.000,1.000,62.000,5.000,0
"07/10/06","04:05:26","AMMA06",35050.000,"cc",28295.639,6.00,2829.564,1,6,0.100,18118.000,0.200,14471.000,0.300,2276.000,0.500,111.000,1.000,74.000,5.000,0
"07/10/06","04:05:32","AMMA06",35509.000,"cc",28275.887,6.00,2827.589,1,6,0.100,18349.000,0.200,14625.000,0.300,2335.000,0.500,130.000,1.000,70.000,5.000,0
"07/10/06","04:05:38","AMMA06",35056.000,"cc",28324.418,6.00,2832.442,1,6,0.100,18225.000,0.200,14232.000,0.300,2409.000,0.500,134.000,1.000,56.000,5.000,0
"07/10/06","04:05:44","AMMA06",35416.000,"cc",28327.217,6.00,2832.722,1,6,0.100,18338.000,0.200,14548.000,0.300,2322.000,0.500,142.000,1.000,66.000,5.000,0
"07/10/06","04:05:50","AMMA06",35331.000,"cc",28333.297,6.00,2833.330,1,6,0.100,18484.000,0.200,14347.000,0.300,2305.000,0.500,123.000,1.000,72.000,5.000,0
"07/10/06","04:05:56","AMMA06",35551.000,"cc",28264.803,6.00,2826.481,1,6,0.100,18567.000,0.200,14461.000,0.300,2309.000,0.500,165.000,1.000,49.000,5.000,0
"07/10/06","04:06:02","AMMA06",35611.000,"cc",28304.356,6.00,2830.436,1,6,0.100,18440.000,0.200,14615.000,0.300,2358.000,0.500,145.000,1.000,53.000,5.000,0
"07/10/06","04:06:08","AMMA06",35434.000,"cc",28382.311,6.00,2838.231,1,6,0.100,18507.000,0.200,14375.000,0.300,2354.000,0.500,143.000,1.000,55.000,5.000,0
"07/10/06","04:06:14","AMMA06",35571.000,"cc",28318.660,6.00,2831.866,1,6,0.100,18451.000,0.200,14592.000,0.300,2308.000,0.500,146.000,1.000,74.000,5.000,0
"07/10/06","04:06:20","AMMA06",35578.000,"cc",28275.313,6.00,2827.532,1,6,0.100,18631.000,0.200,14371.000,0.300,2351.000,0.500,161.000,1.000,64.000,5.000,0
"07/10/06","04:06:26","AMMA06",35617.000,"cc",28287.793,6.00,2828.780,1,6,0.100,18616.000,0.200,14516.000,0.300,2290.000,0.500,139.000,1.000,56.000,5.000,0
"07/10/06","04:06:32","AMMA06",35837.000,"cc",28321.121,6.00,2832.112,1,6,0.100,18746.000,0.200,14609.000,0.300,2293.000,0.500,127.000,1.000,62.000,5.000,0
"07/10/06","04:06:38","AMMA06",35555.000,"cc",28351.885,6.00,2835.189,1,6,0.100,18591.000,0.200,14461.000,0.300,2313.000,0.500,127.000,1.000,63.000,5.000,0
"07/10/06","04:06:44","AMMA06",35368.000,"cc",28303.807,6.00,2830.381,1,6,0.100,18553.000,0.200,14299.000,0.300,2334.000,0.500,122.000,1.000,60.000,5.000,0
"07/10/06","04:06:50","AMMA06",35176.000,"cc",28345.318,6.00,2834.532,1,6,0.100,18284.000,0.200,14420.000,0.300,2282.000,0.500,142.000,1.000,48.000,5.000,0
"07/10/06","04:06:56","AMMA06",35621.000,"cc",28281.479,6.00,2828.148,1,6,0.100,18584.000,0.200,14587.000,0.300,2253.000,0.500,139.000,1.000,58.000,5.000,0
"07/10/06","04:07:02","AMMA06",35062.000,"cc",28298.707,6.00,2829.871,1,6,0.100,18328.000,0.200,14357.000,0.300,2201.000,0.500,126.000,1.000,50.000,5.000,0
"07/10/06","04:07:08","AMMA06",35622.000,"cc",28306.143,6.00,2830.615,1,6,0.100,18667.000,0.200,14446.000,0.300,2329.000,0.500,106.000,1.000,74.000,5.000,0
"07/10/06","04:07:14","AMMA06",35546.000,"cc",28322.352,6.00,2832.235,1,6,0.100,18624.000,0.200,14505.000,0.300,2239.000,0.500,125.000,1.000,53.000,5.000,0
"07/10/06","04:07:20","AMMA06",35553.000,"cc",28363.545,6.00,2836.355,1,6,0.100,18802.000,0.200,14446.000,0.300,2149.000,0.500,95.000,1.000,61.000,5.000,0
"07/10/06","04:07:26","AMMA06",35154.000,"cc",28326.414,6.00,2832.642,1,6,0.100,18494.000,0.200,14272.000,0.300,2226.000,0.500,108.000,1.000,54.000,5.000,0
"07/10/06","04:07:32","AMMA06",35194.000,"cc",28299.383,6.00,2829.939,1,6,0.100,18446.000,0.200,14285.000,0.300,2268.000,0.500,141.000,1.000,54.000,5.000,0
"07/10/06","04:07:38","AMMA06",35453.000,"cc",28273.613,6.00,2827.362,1,6,0.100,18485.000,0.200,14493.000,0.300,2287.000,0.500,124.000,1.000,64.000,5.000,0
"07/10/06","04:07:44","AMMA06",35385.000,"cc",28333.256,6.00,2833.326,1,6,0.100,18395.000,0.200,14419.000,0.300,2345.000,0.500,158.000,1.000,68.000,5.000,0
"07/10/06","04:07:50","AMMA06",35336.000,"cc",28357.684,6.00,2835.769,1,6,0.100,18421.000,0.200,14468.000,0.300,2256.000,0.500,138.000,1.000,53.000,5.000,0
"07/10/06","04:07:56","AMMA06",35358.000,"cc",28271.305,6.00,2827.131,1,6,0.100,18232.000,0.200,14571.000,0.300,2355.000,0.500,147.000,1.000,53.000,5.000,0
"07/10/06","04:08:02","AMMA06",35355.000,"cc",28326.205,6.00,2832.621,1,6,0.100,18455.000,0.200,14428.000,0.300,2256.000,0.500,154.000,1.000,62.000,5.000,0
"07/10/06","04:08:08","AMMA06",35337.000,"cc",28343.252,6.00,2834.325,1,6,0.100,18350.000,0.200,14435.000,0.300,2368.000,0.500,127.000,1.000,57.000,5.000,0
"07/10/06","04:08:14","AMMA06",35366.000,"cc",28344.344,6.00,2834.435,1,6,0.100,18251.000,0.200,14501.000,0.300,2436.000,0.500,117.000,1.000,61.000,5.000,0
"07/10/06","04:08:20","AMMA06",35558.000,"cc",28286.969,6.00,2828.697,1,6,0.100,18494.000,0.200,14585.000,0.300,2281.000,0.500,138.000,1.000,60.000,5.000,0
"07/10/06","04:08:26","AMMA06",35571.000,"cc",28292.945,6.00,2829.295,1,6,0.100,18462.000,0.200,14520.000,0.300,2373.000,0.500,145.000,1.000,71.000,5.000,0
"07/10/06","04:08:32","AMMA06",35446.000,"cc",28364.027,6.00,2836.403,1,6,0.100,18194.000,0.200,14734.000,0.300,2321.000,0.500,134.000,1.000,63.000,5.000,0
"07/10/06","04:08:38","AMMA06",35938.000,"cc",28316.736,6.00,2831.674,1,6,0.100,18427.000,0.200,14842.000,0.300,2479.000,0.500,138.000,1.000,52.000,5.000,0
"07/10/06","04:08:44","AMMA06",35263.000,"cc",28329.467,6.00,2832.947,1,6,0.100,18161.000,0.200,14551.000,0.300,2349.000,0.500,140.000,1.000,62.000,5.000,0
"07/10/06","04:08:50","AMMA06",35519.000,"cc",28301.080,6.00,2830.108,1,6,0.100,18098.000,0.200,14780.000,0.300,2456.000,0.500,115.000,1.000,70.000,5.000,0
"07/10/06","04:08:56","AMMA06",35712.000,"cc",28268.789,6.00,2826.879,1,6,0.100,18207.000,0.200,14858.000,0.300,2448.000,0.500,136.000,1.000,63.000,5.000,0
"07/10/06","04:09:02","AMMA06",35781.000,"cc",28285.379,6.00,2828.538,1,6,0.100,18225.000,0.200,14821.000,0.300,2547.000,0.500,128.000,1.000,60.000,5.000,0
"07/10/06","04:09:08","AMMA06",35635.000,"cc",28354.256,6.00,2835.426,1,6,0.100,17949.000,0.200,15032.000,0.300,2453.000,0.500,148.000,1.000,53.000,5.000,0
"07/10/06","04:09:14","AMMA06",35874.000,"cc",28326.998,6.00,2832.700,1,6,0.100,18066.000,0.200,15064.000,0.300,2536.000,0.500,137.000,1.000,71.000,5.000,0
"07/10/06","04:09:20","AMMA06",35603.000,"cc",28358.836,6.00,2835.884,1,6,0.100,17939.000,0.200,14972.000,0.300,2506.000,0.500,130.000,1.000,56.000,5.000,0
"07/10/06","04:09:26","AMMA06",35825.000,"cc",28364.277,6.00,2836.428,1,6,0.100,18063.000,0.200,15039.000,0.300,2527.000,0.500,144.000,1.000,52.000,5.000,0
"07/10/06","04:09:32","AMMA06",35853.000,"cc",28223.795,6.00,2822.380,1,6,0.100,18328.000,0.200,14897.000,0.300,2425.000,0.500,132.000,1.000,71.000,5.000,0
"07/10/06","04:09:38","AMMA06",35922.000,"cc",28279.920,6.00,2827.992,1,6,0.100,18179.000,0.200,15020.000,0.300,2525.000,0.500,121.000,1.000,77.000,5.000,0
"07/10/06","04:09:44","AMMA06",35277.000,"cc",28337.496,6.00,2833.750,1,6,0.100,17869.000,0.200,14792.000,0.300,2406.000,0.500,144.000,1.000,66.000,5.000,0
"07/10/06","04:09:50","AMMA06",35657.000,"cc",28341.051,6.00,2834.105,1,6,0.100,18350.000,0.200,14746.000,0.300,2362.000,0.500,135.000,1.000,64.000,5.000,0
"07/10/06","04:09:56","AMMA06",35972.000,"cc",28293.053,6.00,2829.305,1,6,0.100,18314.000,0.200,15026.000,0.300,2416.000,0.500,145.000,1.000,71.000,5.000,0
"07/10/06","04:10:02","AMMA06",35686.000,"cc",28338.221,6.00,2833.822,1,6,0.100,18142.000,0.200,14882.000,0.300,2466.000,0.500,133.000,1.000,63.000,5.000,0
"07/10/06","04:10:08","AMMA06",35764.000,"cc",28378.590,6.00,2837.859,1,6,0.100,18201.000,0.200,14971.000,0.300,2407.000,0.500,128.000,1.000,57.000,5.000,0
"07/10/06","04:10:14","AMMA06",35820.000,"cc",28329.414,6.00,2832.942,1,6,0.100,18389.000,0.200,14790.000,0.300,2446.000,0.500,130.000,1.000,65.000,5.000,0
"07/10/06","04:10:20","AMMA06",35722.000,"cc",28287.006,6.00,2828.701,1,6,0.100,18308.000,0.200,14747.000,0.300,2468.000,0.500,139.000,1.000,60.000,5.000,0
"07/10/06","04:10:26","AMMA06",35746.000,"cc",28314.639,6.00,2831.464,1,6,0.100,18153.000,0.200,14918.000,0.300,2482.000,0.500,122.000,1.000,71.000,5.000,0
"07/10/06","04:10:32","AMMA06",35413.000,"cc",28314.869,6.00,2831.487,1,6,0.100,18094.000,0.200,14718.000,0.300,2404.000,0.500,135.000,1.000,62.000,5.000,0
"07/10/06","04:10:38","AMMA06",35757.000,"cc",28269.596,6.00,2826.960,1,6,0.100,18272.000,0.200,14936.000,0.300,2341.000,0.500,150.000,1.000,58.000,5.000,0
"07/10/06","04:10:44","AMMA06",36102.000,"cc",28293.906,6.00,2829.391,1,6,0.100,18595.000,0.200,14806.000,0.300,2492.000,0.500,135.000,1.000,74.000,5.000,0
"07/10/06","04:10:50","AMMA06",35616.000,"cc",28320.326,6.00,2832.033,1,6,0.100,18280.000,0.200,14718.000,0.300,2400.000,0.500,144.000,1.000,74.000,5.000,0
"07/10/06","04:10:56","AMMA06",35779.000,"cc",28340.184,6.00,2834.019,1,6,0.100,18178.000,0.200,14889.000,0.300,2510.000,0.500,141.000,1.000,61.000,5.000,0
"07/10/06","04:11:02","AMMA06",35600.000,"cc",28343.949,6.00,2834.395,1,6,0.100,18114.000,0.200,14822.000,0.300,2465.000,0.500,148.000,1.000,51.000,5.000,0
"07/10/06","04:11:08","AMMA06",36034.000,"cc",28316.725,6.00,2831.673,1,6,0.100,18396.000,0.200,15082.000,0.300,2357.000,0.500,138.000,1.000,61.000,5.000,0
"07/10/06","04:11:14","AMMA06",35783.000,"cc",28338.451,6.00,2833.845,1,6,0.100,18308.000,0.200,14818.000,0.300,2439.000,0.500,156.000,1.000,62.000,5.000,0
"07/10/06","04:11:20","AMMA06",35724.000,"cc",28289.736,6.00,2828.974,1,6,0.100,18395.000,0.200,14734.000,0.300,2392.000,0.500,146.000,1.000,57.000,5.000,0
"07/10/06","04:11:26","AMMA06",35659.000,"cc",28287.275,6.00,2828.728,1,6,0.100,18322.000,0.200,14795.000,0.300,2338.000,0.500,140.000,1.000,64.000,5.000,0
"07/10/06","04:11:32","AMMA06",35629.000,"cc",28362.096,6.00,2836.210,1,6,0.100,18356.000,0.200,14720.000,0.300,2361.000,0.500,132.000,1.000,60.000,5.000,0
"07/10/06","04:11:38","AMMA06",35561.000,"cc",28367.387,6.00,2836.739,1,6,0.100,18361.000,0.200,14593.000,0.300,2366.000,0.500,177.000,1.000,64.000,5.000,0
"07/10/06","04:11:44","AMMA06",35620.000,"cc",28303.932,6.00,2830.393,1,6,0.100,18345.000,0.200,14592.000,0.300,2475.000,0.500,147.000,1.000,61.000,5.000,0
"07/10/06","04:11:50","AMMA06",35632.000,"cc",28322.145,6.00,2832.215,1,6,0.100,18249.000,0.200,14712.000,0.300,2478.000,0.500,130.000,1.000,63.000,5.000,0
"07/10/06","04:11:56","AMMA06",35625.000,"cc",28297.477,6.00,2829.748,1,6,0.100,18397.000,0.200,14568.000,0.300,2462.000,0.500,128.000,1.000,70.000,5.000,0
"07/10/06","04:12:02","AMMA06",35409.000,"cc",28312.381,6.00,2831.238,1,6,0.100,18288.000,0.200,14479.000,0.300,2420.000,0.500,156.000,1.000,66.000,5.000,0
"07/10/06","04:12:08","AMMA06",35721.000,"cc",28323.672,6.00,2832.367,1,6,0.100,18264.000,0.200,14773.000,0.300,2474.000,0.500,143.000,1.000,67.000,5.000,0
"07/10/06","04:12:14","AMMA06",35666.000,"cc",28353.180,6.00,2835.318,1,6,0.100,18311.000,0.200,14752.000,0.300,2385.000,0.500,159.000,1.000,59.000,5.000,0
"07/10/06","04:12:20","AMMA06",35677.000,"cc",28313.199,6.00,2831.320,1,6,0.100,18365.000,0.200,14682.000,0.300,2406.000,0.500,157.000,1.000,67.000,5.000,0
"07/10/06","04:12:26","AMMA06",35172.000,"cc",28296.572,6.00,2829.658,1,6,0.100,18103.000,0.200,14539.000,0.300,2337.000,0.500,122.000,1.000,71.000,5.000,0
"07/10/06","04:12:32","AMMA06",35684.000,"cc",28307.807,6.00,2830.781,1,6,0.100,18192.000,0.200,14896.000,0.300,2392.000,0.500,148.000,1.000,56.000,5.000,0
"07/10/06","04:12:38","AMMA06",35368.000,"cc",28303.914,6.00,2830.392,1,6,0.100,17967.000,0.200,14837.000,0.300,2372.000,0.500,130.000,1.000,62.000,5.000,0
"07/10/06","04:12:44","AMMA06",35870.000,"cc",28317.266,6.00,2831.727,1,6,0.100,18418.000,0.200,14871.000,0.300,2390.000,0.500,135.000,1.000,56.000,5.000,0
"07/10/06","04:12:50","AMMA06",35534.000,"cc",28289.307,6.00,2828.931,1,6,0.100,18138.000,0.200,14791.000,0.300,2438.000,0.500,111.000,1.000,56.000,5.000,0
"07/10/06","04:12:56","AMMA06",35750.000,"cc",28383.373,6.00,2838.337,1,6,0.100,18242.000,0.200,14819.000,0.300,2492.000,0.500,145.000,1.000,52.000,5.000,0
"07/10/06","04:13:02","AMMA06",35322.000,"cc",28303.559,6.00,2830.356,1,6,0.100,18110.000,0.200,14578.000,0.300,2447.000,0.500,136.000,1.000,51.000,5.000,0
"07/10/06","04:13:08","AMMA06",35627.000,"cc",28328.363,6.00,2832.836,1,6,0.100,18216.000,0.200,14848.000,0.300,2371.000,0.500,134.000,1.000,58.000,5.000,0
"07/10/06","04:13:14","AMMA06",35798.000,"cc",28277.979,6.00,2827.798,1,6,0.100,18262.000,0.200,14944.000,0.300,2397.000,0.500,140.000,1.000,55.000,5.000,0
"07/10/06","04:13:20","AMMA06",35710.000,"cc",28311.859,6.00,2831.186,1,6,0.100,18301.000,0.200,14734.000,0.300,2475.000,0.500,143.000,1.000,57.000,5.000,0
"07/10/06","04:13:26","AMMA06",35689.000,"cc",28326.807,6.00,2832.681,1,6,0.100,18296.000,0.200,14777.000,0.300,2412.000,0.500,146.000,1.000,58.000,5.000,0
"07/10/06","04:13:32","AMMA06",35274.000,"cc",28312.682,6.00,2831.268,1,6,0.100,18068.000,0.200,14524.000,0.300,2502.000,0.500,129.000,1.000,51.000,5.000,0
"07/10/06","04:13:38","AMMA06",35549.000,"cc",28353.334,6.00,2835.334,1,6,0.100,18114.000,0.200,14870.000,0.300,2371.000,0.500,129.000,1.000,65.000,5.000,0
"07/10/06","04:13:44","AMMA06",35574.000,"cc",28307.715,6.00,2830.772,1,6,0.100,18296.000,0.200,14759.000,0.300,2328.000,0.500,121.000,1.000,70.000,5.000,0
"07/10/06","04:13:50","AMMA06",35330.000,"cc",28290.664,6.00,2829.067,1,6,0.100,18305.000,0.200,14517.000,0.300,2344.000,0.500,107.000,1.000,57.000,5.000,0
"07/10/06","04:13:56","AMMA06",35550.000,"cc",28299.869,6.00,2829.987,1,6,0.100,18417.000,0.200,14667.000,0.300,2274.000,0.500,126.000,1.000,66.000,5.000,0
"07/10/06","04:14:02","AMMA06",35469.000,"cc",28343.904,6.00,2834.391,1,6,0.100,18354.000,0.200,14590.000,0.300,2358.000,0.500,112.000,1.000,55.000,5.000,0
"07/10/06","04:14:08","AMMA06",35512.000,"cc",28369.023,6.00,2836.903,1,6,0.100,18425.000,0.200,14541.000,0.300,2337.000,0.500,144.000,1.000,65.000,5.000,0
"07/10/06","04:14:14","AMMA06",35480.000,"cc",28302.389,6.00,2830.239,1,6,0.100,18145.000,0.200,14769.000,0.300,2369.000,0.500,125.000,1.000,72.000,5.000,0
"07/10/06","04:14:20","AMMA06",35561.000,"cc",28292.553,6.00,2829.255,1,6,0.100,18303.000,0.200,14681.000,0.300,2386.000,0.500,141.000,1.000,50.000,5.000,0